Island Lake, Manitoba

8:44 AM CDT on July 21, 2017 (GMT -0500)
Island Lake

Weather History for CYIV - February, 2013

Change the Weather History Date:

Wednesday, February 13, 2013

  Actual Average Record
Temperature  
Mean Temperature 2 °F -  
Max Temperature 10 °F 14 °F 33 °F (2017)
Min Temperature -5 °F -5 °F -41 °F (2014)
Degree Days  
Heating Degree Days 62    
Moisture  
Dew Point 1 °F    
Average Humidity 81    
Maximum Humidity 96    
Minimum Humidity 68    
Precipitation  
Precipitation 0.01 in 0.03 in - ()
Sea Level Pressure  
Sea Level Pressure 29.76 in    
Wind  
Wind Speed 8 mph ()    
Max Wind Speed 15 mph    
Max Gust Speed 22 mph    
Visibility 13.1 miles    
Events Snow    
Averages and records for this station are not official NWS values.
T = Trace of Precipitation, MM = Missing Value Source: Averaged Metar Reports

Daily Weather History Graph

Daily Weather History Graph

Search for Another Location

Airport or City:

Trip Planner

Search our weather history database for the weather conditions in past years. The results will help you decide how hot, cold, wet, or windy it might be!

Date:

Astronomy

Feb. 13, 2013 Rise Set
Actual Time 7:41 AM CST 5:24 PM CST
Civil Twilight 7:04 AM CST 6:01 PM CST
Nautical Twilight 6:23 AM CST 6:43 PM CST
Astronomical Twilight 5:42 AM CST 7:23 PM CST
Moon 8:30 AM CST (2/13) 10:14 PM CST (2/13)
Length of Visible Light 10h 57m
Length of Day
9h 43m
Waxing Crescent, 14% of the Moon is Illuminated
Feb 13
Waxing Crescent
Feb 17
First Quarter
Feb 25
Full
Mar 4
Last Quarter
Mar 11
New

Hourly Weather History & Observations

Time (CST) Temp. Windchill Dew Point Humidity Pressure Visibility Wind Dir Wind Speed Gust Speed Precip Events Conditions
12:00 AM 20 °F - 19 °F 96% 29.55 in 10 mi NNW 15.0 mph - - Snow Light Snow
12:00 AM 21.2 °F 7.8 °F 19.4 °F 93% 29.55 in 10.0 mi NNW 15.0 mph 21.9 mph N/A Snow Light Snow
1:00 AM 17.6 °F 4.3 °F 15.8 °F 93% 29.58 in 12.0 mi North 12.7 mph 18.4 mph N/A Snow Light Snow
2:00 AM 14.0 °F 2.0 °F 12.2 °F 93% 29.61 in 15.0 mi North 9.2 mph - N/A Snow Light Snow
2:32 AM - - - N/A% - 12.0 mi North 8.1 mph - N/A   Unknown
3:00 AM 12.2 °F 1.7 °F 10.4 °F 92% 29.63 in 12.0 mi North 6.9 mph - N/A Snow Light Snow
4:00 AM 12.2 °F 0.7 °F 8.6 °F 85% 29.64 in 15.0 mi North 8.1 mph - N/A Snow Light Snow
5:00 AM 10.4 °F -2.4 °F 8.6 °F 92% 29.64 in 8.0 mi NW 9.2 mph - N/A Snow Light Snow
6:00 AM 5 °F - 3 °F 88% 29.66 in 15 mi NNW 8.1 mph - - Snow Light Snow
6:00 AM 5.0 °F -8.1 °F 3.2 °F 92% 29.66 in 15.0 mi NNW 8.1 mph - N/A Snow Light Snow
7:00 AM 1.4 °F -11.3 °F -0.4 °F 92% 29.68 in 15.0 mi NW 6.9 mph - N/A Snow Light Snow
8:00 AM -0.4 °F -12.0 °F -7.6 °F 72% 29.71 in 8.0 mi NNW 5.8 mph - N/A Snow Light Snow
9:00 AM -0.4 °F -13.4 °F -5.8 °F 78% 29.73 in 10.0 mi WNW 6.9 mph - N/A Snow Light Snow
9:24 AM - - - N/A% - 6.0 mi NNW 6.9 mph - N/A   Unknown
10:00 AM 1.4 °F -8.3 °F -4.0 °F 78% 29.74 in 10.0 mi NNW 4.6 mph - N/A Snow Light Snow
11:00 AM 3.2 °F -9.1 °F -2.2 °F 78% 29.75 in 12.0 mi NNW 6.9 mph - N/A Snow Light Snow
12:00 PM 4 °F - -1 °F 69% 29.77 in 12 mi NNW 8.1 mph - - Snow Light Snow
12:00 PM 3.2 °F -9.1 °F -0.4 °F 85% 29.77 in 12.0 mi NNW 6.9 mph - N/A Snow Light Snow
1:00 PM 5.0 °F -8.1 °F -0.4 °F 78% 29.78 in 15.0 mi NNW 8.1 mph - N/A Snow Light Snow
1:19 PM - - - N/A% - 15.0 mi NNW 8.1 mph - N/A   Unknown
1:50 PM - - - N/A% - 15.0 mi NNW 6.9 mph - N/A   Partly Cloudy
2:00 PM 6.8 °F -4.8 °F 1.4 °F 79% 29.79 in 15.0 mi NNW 6.9 mph - N/A   Partly Cloudy
3:00 PM 8.6 °F 0.1 °F 1.4 °F 73% 29.81 in 15.0 mi WNW 4.6 mph - N/A   Partly Cloudy
4:00 PM 10.4 °F -1.5 °F 3.2 °F 73% 29.82 in 15.0 mi NNW 8.1 mph - N/A   Partly Cloudy
5:00 PM 6.8 °F -4.8 °F 1.4 °F 79% 29.84 in 15.0 mi North 6.9 mph - N/A   Partly Cloudy
6:00 PM 4 °F - -1 °F 68% 29.88 in 15 mi NNW 8.1 mph - -   Partly Cloudy
6:00 PM 5.0 °F -6.9 °F -2.2 °F 72% 29.88 in 15.0 mi NNW 6.9 mph - N/A   Clear
7:00 PM 3.2 °F -10.3 °F -4.0 °F 72% 29.91 in 15.0 mi NNW 8.1 mph - N/A   Clear
8:00 PM 1.4 °F -11.3 °F -5.8 °F 72% 29.93 in 15.0 mi North 6.9 mph - N/A   Clear
9:00 PM -2.2 °F -12.5 °F -9.4 °F 71% 29.95 in 15.0 mi NNW 4.6 mph - N/A   Clear
10:00 PM -5.8 °F - -11.2 °F 77% 29.97 in 15.0 mi NW 2.3 mph - N/A   Clear
11:00 PM -5.8 °F -14.5 °F -11.2 °F 77% 29.98 in 15.0 mi North 3.5 mph - N/A   Clear